Flag for Uzbekistan Weather past 2 weeks in Samarkand, Uzbekistan

Now
66 °F

Passing clouds.


Feels Like: 66 °F
Forecast: 50 / 65 °F
Wind: 3 mph from East

Location: Samarkand

Current Time: Oct 22, 2014 at 9:16:23 PM

Latest Report: Oct 22, 2014 at 8:30 PM


Visibility: N/A

Pressure: 29.86 "Hg

Humidity: 56%

Dew point: 50 °F

Location of SamarkandLocation

Historic Weather in Samarkand — Graph

°F

Samarkand temperature yesterday

Maximum temperature yesterday: 66 °F (at 1:30 PM)
Minimum temperature yesterday: 52 °F (at 5:30 AM)
Average temperature yesterday: 57 °F

Past Weeks' High & Low Weather Summary

 TemperatureHumidityPressure
High82 °F (Oct 20, 1:30 PM)94% (Oct 8, 5:00 AM)30.51 "Hg (Oct 8, 5:00 AM)
Low39 °F (Oct 9, 4:30 AM)18% (Oct 16, 2:30 PM)29.77 "Hg (Oct 18, 2:00 PM)
Average58 °F52%30.14 "Hg
* Reported Oct 7 8:00 PM — Oct 22 8:00 PM, Samarkand, Weather by CustomWeather, © 2014

Note: Actual official high and low records may vary slightly from our data, if they occured in-between our weather recording intervals... More about our weather records

Advertising

Samarkand weather history for previous 24 hours

 ConditionsComfort  
Time TempWeatherWind HumidityBarometerVisibility
8:00 PM
Oct 22
68 °FPassing clouds.6 mph53%29.86 "HgN/A
7:30 PM66 °FPassing clouds.8 mph56%29.89 "HgN/A
6:30 PM72 °FPassing clouds.3 mph44%29.89 "HgN/A
6:00 PM72 °FPassing clouds.3 mph41%29.89 "HgN/A
5:30 PM73 °FPartly sunny.3 mph38%29.89 "HgN/A
5:00 PM73 °FScattered clouds.1 mph50%29.89 "HgN/A
4:30 PM77 °FScattered clouds.No wind39%29.89 "HgN/A
4:00 PM77 °FScattered clouds.1 mph39%29.89 "HgN/A
3:30 PM79 °FScattered clouds.No wind34%29.89 "HgN/A
3:00 PM81 °FScattered clouds.1 mph28%29.89 "HgN/A
2:30 PM81 °FScattered clouds.1 mph30%29.89 "HgN/A
2:00 PM79 °FPartly sunny.1 mph34%29.89 "HgN/A
1:30 PM79 °FScattered clouds.1 mph37%29.92 "HgN/A
1:00 PM79 °FPartly sunny.3 mph37%29.92 "HgN/A
12:30 PM79 °FPartly sunny.6 mph28%29.92 "HgN/A
12:00 PM81 °FScattered clouds.8 mph21%29.92 "HgN/A
11:30 AM81 °FScattered clouds.8 mph23%29.95 "HgN/A
11:00 AM79 °FClear.10 mph24%29.95 "HgN/A
10:30 AM79 °FClear.8 mph23%29.95 "HgN/A
10:00 AM77 °FClear.8 mph24%29.95 "HgN/A
9:30 AM73 °FClear.8 mph31%29.95 "HgN/A
9:00 AM72 °FScattered clouds.8 mph31%29.95 "HgN/A
8:30 AM68 °FScattered clouds.6 mph38%29.98 "HgN/A
8:00 AM59 °FScattered clouds.No wind63%29.98 "Hg4 mi
7:30 AM55 °FClear.1 mph72%29.95 "Hg4 mi
7:00 AM57 °FScattered clouds.1 mph59%29.95 "Hg4 mi
6:30 AM57 °FPassing clouds.3 mph59%29.95 "Hg4 mi
6:00 AM61 °FClear.6 mph52%29.95 "HgN/A
5:30 AM59 °FClear.8 mph59%29.95 "HgN/A
5:00 AM59 °FClear.8 mph63%29.95 "HgN/A
4:00 AM57 °FClear.6 mph67%29.95 "HgN/A
3:00 AM52 °FClear.1 mph88%30.01 "HgN/A
2:30 AM55 °FClear.3 mph77%29.98 "HgN/A
2:00 AM52 °FClear.1 mph88%30.01 "HgN/A
1:30 AM54 °FClear.1 mph82%30.01 "HgN/A
1:00 AM54 °FClear.6 mph88%30.04 "HgN/A
12:00 AM54 °FClear.6 mph88%30.04 "HgN/A
11:30 PM
Oct 21
54 °FClear.3 mph88%30.04 "HgN/A
11:00 PM54 °FClear.3 mph88%30.04 "HgN/A
10:30 PM52 °FClear.3 mph94%30.07 "HgN/A
10:00 PM54 °FClear.3 mph88%30.09 "HgN/A
9:30 PM54 °FClear.8 mph88%30.09 "HgN/A
9:00 PM55 °FClear.8 mph82%30.09 "HgN/A
Weather by CustomWeather, © 2014

See weather overviewHow to use our weather pages